الكل
Glen Innes Airport (Glen Innes, New South Wales) GLI حالة الطقس
|
Glen Innes, New South Wales (YGLI)
سماء صافية
رياح خفيفة |
|
4 °C |
توقع منطقة محطة المطارGLI
| Date | Time (AEST) | Flight Rules | Wind Dir. | Speed | Type | Height AGL (ft) | Visibility | Remarks | ||||||
|---|---|---|---|---|---|---|---|---|---|---|---|---|---|---|
محفوظات أحدث تقرير روتيني عن حالة الطقس من أجل الطيران (الميتار )GLI
| Date | Time (AEST) | Flight Rules | Wind Dir. | Speed | Type | Height AGL (ft) | Visibility | Temp (°C) | Temp (°F) | Dew Point (°C) | Dew Point (°F) | Rel. Humid. | Pressure | Density Altitude | Remarks |
|---|---|---|---|---|---|---|---|---|---|---|---|---|---|---|---|
| 09-ماي | 03:00 | VFR | 130° | 9 kt | 10000 meters | 4° | 39° | 1° | 33° | 81% | 1022 mb | 2,566 ft | |||
| 09-ماي | 02:00 | VFR | 120° | 8 kt | 10000 meters | 2° | 35° | 0° | 32° | 87% | 1022 mb | 2,326 ft | |||
| 09-ماي | 01:00 | VFR | 140° | 3 kt | 10000 meters | 0° | 32° | -1° | 30° | 93% | 1022 mb | 2,086 ft | |||
| 09-ماي | 00:00 | VFR | 100° | 7 kt | 10000 meters | 2° | 35° | 1° | 33° | 93% | 1022 mb | 2,326 ft | |||
| 08-ماي | 23:00 | VFR | 120° | 5 kt | 10000 meters | 1° | 33° | -1° | 30° | 86% | 1022 mb | 2,206 ft | |||
| 08-ماي | 22:00 | VFR | 120° | 4 kt | 10000 meters | 2° | 35° | -1° | 30° | 80% | 1023 mb | 2,297 ft | |||
| 08-ماي | 21:00 | VFR | Calm | 10000 meters | 2° | 35° | -1° | 30° | 80% | 1022 mb | 2,326 ft | ||||
| 08-ماي | 20:00 | VFR | 260° | 2 kt | 10000 meters | 5° | 41° | -1° | 30° | 65% | 1022 mb | 2,686 ft | |||
| 08-ماي | 19:00 | VFR | 250° | 5 kt | 10000 meters | 6° | 42° | -2° | 28° | 56% | 1022 mb | 2,806 ft | |||
| 08-ماي | 18:00 | VFR | 240° | 3 kt | 10000 meters | 10° | 50° | -2° | 28° | 43% | 1021 mb | 3,316 ft | |||
| 08-ماي | 17:00 | VFR | 250° | 10 kt | 10000 meters | 13° | 55° | -1° | 30° | 38% | 1020 mb | 3,705 ft | |||
| 08-ماي | 16:00 | VFR | 250° | 13 kt | 10000 meters | 15° | 59° | -2° | 28° | 31% | 1020 mb | 3,945 ft | |||
| 08-ماي | 15:00 | VFR | 250° | 14 kt | 10000 meters | 16° | 60° | 0° | 32° | 34% | 1019 mb | 4,095 ft | |||
| 08-ماي | 14:00 | VFR | 260° | 13 kt | 10000 meters | 16° | 60° | 0° | 32° | 34% | 1019 mb | 4,095 ft | |||
| 08-ماي | 13:00 | VFR | 260° | 12 kt | 10000 meters | 16° | 60° | 1° | 33° | 36% | 1020 mb | 4,065 ft | |||
| 08-ماي | 12:00 | VFR | 260° | 13 kt | 10000 meters | 15° | 59° | 0° | 32° | 36% | 1020 mb | 3,945 ft | |||
| 08-ماي | 11:00 | VFR | 270° | 11 kt | 10000 meters | 13° | 55° | -1° | 30° | 38% | 1021 mb | 3,676 ft | |||
| 08-ماي | 10:00 | VFR | 240° | 9 kt | 10000 meters | 13° | 55° | 0° | 32° | 41% | 1021 mb | 3,676 ft | |||
| 08-ماي | 09:00 | VFR | 250° | 2 kt | 10000 meters | 8° | 46° | -2° | 28° | 49% | 1021 mb | 3,076 ft | |||
| 08-ماي | 08:00 | VFR | 270° | 3 kt | 10000 meters | 3° | 37° | -2° | 28° | 70% | 1021 mb | 2,476 ft | |||
| 08-ماي | 07:00 | VFR | 310° | 3 kt | 10000 meters | -1° | 30° | -3° | 26° | 86% | 1021 mb | 1,996 ft | |||
| 08-ماي | 06:00 | VFR | Calm | 10000 meters | -2° | 28° | -5° | 23° | 80% | 1020 mb | 1,905 ft | ||||
| 08-ماي | 05:00 | VFR | 250° | 3 kt | 10000 meters | -1° | 30° | -5° | 23° | 74% | 1020 mb | 2,025 ft | |||
| 08-ماي | 04:00 | VFR | 230° | 4 kt | 10000 meters | -3° | 26° | -7° | 19° | 74% | 1020 mb | 1,785 ft |
تسجيل الدخول
| مُتصفحك غير مُدعَّم. قم بترقية متصفحك |
